Location: WHS+Essen
(51.3947°N, 6.9794°E)
Time: 22:21:52
(UTC+02:00)

ISS - Pass Details

Date: 22 May 2019
Orbit: 407 x 418 km, 51.6° (Epoch: 25 June)

Event Time Altitude Azimuth Distance (km) Brightness Sun altitude
Rises 00:59:50 0° 278° (W) 2,364 0.3 -18.0°
Reaches altitude 10° 01:01:56 10° 278° (W) 1,501 -0.8 -18.1°
Maximum altitude 01:05:19 88° 195° (SSW) 426 -3.9 -18.1°
Enters shadow 01:07:10 25° 100° (E) 898 -2.3 -18.2°
